THOR ABLESTAR DEB, 652

Orbit data source: Space-Track

THOR ABLESTAR DEB, 652 is space debris in LEO originally from a launch on Thu, 29 Jun 1961 UTC launched from the Air Force Eastern Test Range (AFETR). Debris objects in space refer to the collection of defunct objects orbiting the Earth. Examples of debris include non-operational satellites, rocket bodies, and fragments generated from explosions, collisions, or faulty payload assembly.

Loading next visibility...
Identifier
652, 1961-015HD
Orbit
LEO
Country
Flag of USUS
Related business
Manufacturer
Unknown
Mission
Spacecraft
Bus & Motor
Unknown
Mass
Unknown
Launch date (UTC)
1961-06-29 (64 years ago)
Launch vehicle
Unknown
Launch site
Air Force Eastern Test Range (AFETR)
Object type
Payload
Rocket body
Debris
Shape & HBR
Unknown shape, 0.1 m
Radar Cross Section
Small (<0.1 m²)

Expand to show TLE details & history
Last TLE update: 8 hours ago

TLE from 8 hours ago
0 THOR ABLESTAR DEB
1 00652U 61015HD  25293.29610608  .00003915  00000-0  19103-2 0  9993
2 00652  66.7087   1.9662 0073171 175.0603 185.1228 14.17654853259843
Epoch: 2025-10-20T07:06Z
TLE epoch observation values (Epoch: 2025-10-20T07:06:23.565Z)
Latitude
-0.00001°
Longitude
-133.63245°
Altitude
887.956 km
Speed
7.382 km/s
True Right ascension
00h 07m 51s
True Declination
0° 00' 00"
Sunlit
Object was in full shadow at epoch
Visualization orbit readout
Latitude
Unknown
Longitude
Unknown
Altitude
Unknown
Speed
Unknown
Apparent Right ascension
Unknown
Apparent Declination
Unknown
Sunlit
N/A
Visualization observer readout
Local Sidereal Time
10:18:32
Azimuth
Unknown
Elevation
Unknown
Doppler factor
Unknown
Orbital elements
Apogee altitude
884.433 km
Perigee altitude
778.923 km
Semi-major axis
7,209.815 km
Eccentricity
0.00732
Inclination
66.7087°
RAAN
1.9662°
Arg. of periapsis
175.0603°
True anomaly
185.04861°
Mean anomaly
185.1228°
Eccentric anomaly
185.08564°
Mean motion
3.54533 °/min
Orbital period
101.54 mins
BSTAR
0.0019103

Documentation

Showing up to 5 results
|